Regional Weather Roundup
Issued by NWS Glasgow, MT

Home | Current Version | Previous Version | Text Only | Print | Product List | Glossary On
Versions: 1 2 3 4 5 6 7 8 9 10 11 12 13 14 15 16 17 18 19 20 21 22 23 24 25 26 27 28
000
ASUS45 KGGW 181215
RWRGGW
HOURLY WEATHER ROUNDUP FOR NORTHEAST MONTANA
NATIONAL WEATHER SERVICE GLASGOW MONTANA
600 AM MDT FRI APR 18 2014

NOTE: "FAIR" INDICATES FEW OR NO CLOUDS BELOW 12,000 FEET WITH NO
SIGNIFICANT WEATHER AND/OR OBSTRUCTIONS TO VISISBILITY.

NORTHEAST MONTANA


CITY           SKY/WX    TMP DP  RH WIND       PRES   REMARKS
GLASGOW        CLOUDY    40  33  76 E21       29.70F
6HR MIN TEMP:  40; 6HR MAX TEMP:  44; 6HR PCP: TRACE;

PLENTYWOOD       N/A     33  29  85 SE9         N/A
WOLF POINT     CLOUDY    42  29  59 E12       29.78F
JORDAN           N/A     44  36  73 E8        29.67F
WINNETT          N/A     38  35  89 W3          N/A
SIDNEY         MOCLDY    36  25  64 SE12      29.87F
GLENDIVE       MOCLDY    36  27  69 E10       29.81S

FORT PECK REPORTS


CITY           SKY/WX    TMP DP  RH WIND       PRES   REMARKS
FORT PECK        N/A     41  32  70 E17         N/A
THE PINES        N/A     42  32  67 E3          N/A

SOUTHEAST MONTANA


CITY           SKY/WX    TMP DP  RH WIND       PRES   REMARKS
BILLINGS       CLOUDY    45  32  60 N6        29.65S
MILES CITY     PTCLDY    44  35  70 SE13      29.71F
BAKER          PTCLDY    31  26  82 SE16      29.81F
LIVINGSTON     CLOUDY    57  32  38 SW33G41   29.65S

CENTRAL MONTANA


CITY           SKY/WX    TMP DP  RH WIND       PRES   REMARKS
HAVRE          CLOUDY    46  43  89 NE5       29.62F
LEWISTOWN      CLOUDY    43  33  68 W12       29.69R
GREAT FALLS    CLOUDY    45  40  82 SW15      29.64S
CUT BANK       MOCLDY    39  32  76 SW13      29.62S
HELENA         CLOUDY    47  38  71 NW7       29.72S
BUTTE          LGT RAIN  39  36  89 W6        29.77S
BOZEMAN        CLOUDY    48  37  65 NW8       29.71R

WESTERN MONTANA


CITY           SKY/WX    TMP DP  RH WIND       PRES   REMARKS
MISSOULA       CLOUDY    45  36  70 SW9       29.79R
KALISPELL      NOT AVBL

NORTH DAKOTA


CITY           SKY/WX    TMP DP  RH WIND       PRES   REMARKS
WILLISTON      CLOUDY    37  24  59 SE10      29.90F
DICKINSON      CLEAR     31  23  72 SE14      29.89R
MINOT          MOCLDY    30  21  69 E14       30.04F
BISMARCK       CLOUDY    35  22  58 E16       30.05F

SOUTHERN SASKATCHEWAN


CITY           SKY/WX    TMP DP  RH WIND       PRES   REMARKS
REGINA         RAIN      32  27  80 SE24G33   29.88F
ESTEVAN        MOCLDY    30  23  74 E17G24    29.95F
SWIFT CURRENT  LGT RAIN  36  34  93 SE18G24   29.66F




USA.gov is the U.S. government's official web portal to all federal, state and local government web resources and services.